Location: White Rock
(35.8256°N, 106.1876°W)
Time: 02:54:22
(UTC-07:00)

Hubble Space Telescope - Visible Passes

Search period start: 23 January 2019 00:00
Search period end: 02 February 2019 00:00
Orbit: 537 x 540 km, 28.5° (Epoch: 22 January)

Date Brightness Start Highest point End Pass type
(mag) Time Alt. Az. Time Alt. Az. Time Alt. Az.
23 Jan 3.7 04:24:15 13° ESE 04:24:15 13° ESE 04:24:53 10° ESE visible
23 Jan 2.5 05:59:35 14° SW 06:02:01 22° SSW 06:05:17 10° SE visible
24 Jan 2.6 05:49:45 16° SW 05:51:29 20° SSW 05:54:32 10° SSE visible
25 Jan 2.7 05:39:55 16° SW 05:40:56 17° SSW 05:43:42 10° SSE visible
26 Jan 2.9 05:30:06 15° SSW 05:30:24 15° SSW 05:32:45 10° SSE visible
27 Jan 3.2 05:20:19 12° SSW 05:20:19 12° SSW 05:21:34 10° S visible
